Weather History for PAPB - October, 2012

Change the Weather History Date:

Saturday, October 6, 2012

  Actual Average Record
Temperature  
Mean Temperature 43 °F -  
Max Temperature 46 °F 43 °F 48 °F (2013)
Min Temperature 41 °F 36 °F 28 °F (2011)
Degree Days  
Heating Degree Days 22    
Moisture  
Dew Point 40 °F    
Average Humidity 89    
Maximum Humidity 96    
Minimum Humidity 82    
Precipitation  
Precipitation 0.02 in - - ()
Sea Level Pressure  
Sea Level Pressure 29.87 in    
Wind  
Wind Speed 14 mph (ESE)    
Max Wind Speed 18 mph    
Max Gust Speed -    
Visibility 10 miles    
Events Rain    
Averages and records for this station are not official NWS values.
T = Trace of Precipitation, MM = Missing Value Source: NWS Daily Summary

Daily Weather History Graph

Daily Weather History Graph

Search for Another Location

Airport or City:

Trip Planner

Search our weather history database for the weather conditions in past years. The results will help you decide how hot, cold, wet, or windy it might be!

Date:

Astronomy

Oct. 06, 2012 Rise Set
Actual Time 9:33 AM AKDT 8:38 PM AKDT
Civil Twilight 8:56 AM AKDT 9:15 PM AKDT
Nautical Twilight 8:12 AM AKDT 9:59 PM AKDT
Astronomical Twilight 7:27 AM AKDT 10:44 PM AKDT
Moon No Moon Rise 4:31 PM AKDT (10/6)
Length of Visible Light 12h 19m
Length of Day
11h 04m
Waning Gibbous, 64% of the Moon is Illuminated
Oct 6
Waning Gibbous
Oct 7
Last Quarter
Oct 15
New
Oct 21
First Quarter
Oct 29
Full

Hourly Weather History & Observations

Time (AKDT) Temp. Windchill Dew Point Humidity Pressure Visibility Wind Dir Wind Speed Gust Speed Precip Events Conditions
12:53 AM 42.1 °F 33.6 °F 37.0 °F 82% 29.84 in 10.0 mi SSW 18.4 mph - N/A   Partly Cloudy
1:53 AM 41.0 °F 33.5 °F 36.0 °F 82% 29.85 in 10.0 mi SW 13.8 mph - 0.00 in   Overcast
2:53 AM 42.1 °F 34.9 °F 37.9 °F 85% 29.85 in 10.0 mi SSW 13.8 mph - N/A   Mostly Cloudy
3:53 AM 42.1 °F 34.5 °F 37.9 °F 85% 29.86 in 10.0 mi SSW 15.0 mph - N/A   Overcast
4:53 AM 42.1 °F 34.9 °F 37.9 °F 85% 29.86 in 10.0 mi South 13.8 mph - N/A   Overcast
5:53 AM 42.1 °F 35.2 °F 37.9 °F 85% 29.86 in 10.0 mi South 12.7 mph - N/A   Overcast
6:53 AM 42.1 °F 35.7 °F 39.0 °F 89% 29.87 in 10.0 mi South 11.5 mph - N/A   Scattered Clouds
7:53 AM 42.1 °F 35.7 °F 39.9 °F 92% 29.87 in 10.0 mi South 11.5 mph - N/A   Mostly Cloudy
8:53 AM 42.1 °F 35.2 °F 39.9 °F 92% 29.88 in 10.0 mi South 12.7 mph - N/A   Overcast
9:53 AM 42.1 °F 35.7 °F 39.9 °F 92% 29.89 in 10.0 mi SSE 11.5 mph - N/A   Overcast
10:53 AM 43.0 °F 37.7 °F 39.9 °F 89% 29.90 in 10.0 mi SSE 9.2 mph - N/A   Overcast
11:53 AM 43.0 °F 36.0 °F 39.0 °F 86% 29.91 in 10.0 mi SE 13.8 mph - N/A   Overcast
12:40 PM 42.8 °F 38.0 °F 39.2 °F 87% 29.94 in 8.0 mi SSE 8.1 mph - 0.01 in Rain Light Rain
12:53 PM 42.1 °F 39.2 °F 39.0 °F 89% 29.90 in 10.0 mi SE 4.6 mph - 0.01 in Rain Light Rain
1:17 PM 42.8 °F 41.1 °F 39.2 °F 87% 29.93 in 9.0 mi SSE 3.5 mph - 0.01 in Rain Light Rain
1:53 PM 44.1 °F 39.5 °F 41.0 °F 89% 29.89 in 10.0 mi SE 8.1 mph - 0.01 in   Overcast
2:53 PM 44.1 °F 38.6 °F 41.0 °F 89% 29.90 in 10.0 mi ESE 10.4 mph - N/A   Overcast
3:53 PM 45.0 °F 38.5 °F 41.0 °F 86% 29.87 in 10.0 mi East 13.8 mph - N/A   Overcast
4:53 PM 45.0 °F 37.6 °F 39.9 °F 82% 29.86 in 10.0 mi East 17.3 mph - N/A   Overcast
5:53 PM 45.0 °F 38.5 °F 41.0 °F 86% 29.87 in 10.0 mi ENE 13.8 mph - N/A   Overcast
6:53 PM 45.0 °F 38.5 °F 39.9 °F 82% 29.84 in 10.0 mi East 13.8 mph - N/A   Overcast
7:53 PM 44.1 °F 37.7 °F 39.9 °F 85% 29.86 in 9.0 mi East 12.7 mph - N/A   Overcast
8:53 PM 43.0 °F 36.0 °F 41.0 °F 93% 29.86 in 10.0 mi ENE 13.8 mph - 0.00 in   Overcast
9:06 PM 42.8 °F 35.4 °F 41.0 °F 93% 29.89 in 8.0 mi ENE 15.0 mph - N/A   Overcast
9:34 PM 42.8 °F 35.8 °F 41.0 °F 93% 29.88 in 10.0 mi ENE 13.8 mph - 0.00 in   Overcast
9:40 PM 42.8 °F 36.2 °F 41.0 °F 93% 29.88 in 10.0 mi NE 12.7 mph - 0.00 in   Overcast
9:49 PM 42.8 °F 34.8 °F 41.0 °F 93% 29.88 in 10.0 mi NE 17.3 mph - 0.00 in   Overcast
9:53 PM 42.1 °F 34.5 °F 41.0 °F 96% 29.85 in 10.0 mi NE 15.0 mph - 0.00 in   Overcast
10:28 PM 42.8 °F 35.4 °F 41.0 °F 93% 29.88 in 10.0 mi NE 15.0 mph - N/A   Overcast
10:53 PM 42.1 °F 33.6 °F 41.0 °F 96% 29.84 in 10.0 mi ENE 18.4 mph - N/A   Overcast
11:53 PM 42.1 °F 33.9 °F 41.0 °F 96% 29.86 in 10.0 mi ENE 17.3 mph - N/A   Overcast